Time,TemperatureF,DewpointF,PressureIn,WindDirection,WindDirectionDegrees,WindSpeedMPH,WindSpeedGustMPH,Humidity,HourlyPrecipIn,Conditions,Clouds,dailyrainin,SoftwareType,DateUTC
2013-01-19 00:01:00,49.7,20.3,30.12,NNW,338,7.0,7.0,31,0.00,,,0.00,VWS V14.01,2013-01-19 07:01:00,
2013-01-19 00:10:00,49.0,20.4,30.12,NNW,342,6.0,10.0,32,0.00,,,0.00,VWS V14.01,2013-01-19 07:10:00,
2013-01-19 00:15:00,49.1,19.8,30.12,North,5,8.0,9.0,31,0.00,,,0.00,VWS V14.01,2013-01-19 07:15:00,
2013-01-19 00:20:00,49.4,20.0,30.12,North,360,8.0,10.0,31,0.00,,,0.00,VWS V14.01,2013-01-19 07:20:00,
2013-01-19 00:25:00,49.5,20.1,30.12,NNE,17,6.0,10.0,31,0.00,,,0.00,VWS V14.01,2013-01-19 07:25:00,
2013-01-19 00:30:00,49.5,20.1,30.12,North,5,7.0,9.0,31,0.00,,,0.00,VWS V14.01,2013-01-19 07:30:00,
2013-01-19 00:35:00,49.3,20.0,30.12,North,355,6.0,8.0,31,0.00,,,0.00,VWS V14.01,2013-01-19 07:35:00,
2013-01-19 00:40:00,49.1,19.8,30.12,North,355,6.0,11.0,31,0.00,,,0.00,VWS V14.01,2013-01-19 07:40:00,
2013-01-19 00:45:00,49.3,20.0,30.12,North,5,5.0,11.0,31,0.00,,,0.00,VWS V14.01,2013-01-19 07:45:00,
2013-01-19 00:50:00,49.3,20.0,30.12,North,351,7.0,8.0,31,0.00,,,0.00,VWS V14.01,2013-01-19 07:50:00,
2013-01-19 00:55:00,49.2,19.9,30.12,North,350,4.0,10.0,31,0.00,,,0.00,VWS V14.01,2013-01-19 07:55:00,
2013-01-19 01:00:00,49.4,19.3,30.12,NNW,334,6.0,10.0,30,0.00,,,0.00,VWS V14.01,2013-01-19 08:00:00,
2013-01-19 01:05:00,49.7,19.5,30.12,North,349,7.0,11.0,30,0.00,,,0.00,VWS V14.01,2013-01-19 08:05:00,
2013-01-19 01:10:00,49.8,19.6,30.12,NNW,339,8.0,11.0,30,0.00,,,0.00,VWS V14.01,2013-01-19 08:10:00,
2013-01-19 01:15:00,49.6,19.5,30.12,North,350,7.0,12.0,30,0.00,,,0.00,VWS V14.01,2013-01-19 08:15:00,
2013-01-19 01:20:00,49.3,20.0,30.12,NW,312,6.0,11.0,31,0.00,,,0.00,VWS V14.01,2013-01-19 08:20:00,
2013-01-19 01:25:00,48.8,19.5,30.12,NNW,335,7.0,9.0,31,0.00,,,0.00,VWS V14.01,2013-01-19 08:25:00,
2013-01-19 01:30:00,48.5,20.0,30.12,NNW,342,6.0,10.0,32,0.00,,,0.00,VWS V14.01,2013-01-19 08:30:00,
2013-01-19 01:35:00,48.2,19.7,30.12,NNW,336,5.0,10.0,32,0.00,,,0.00,VWS V14.01,2013-01-19 08:35:00,
2013-01-19 01:40:00,48.1,19.6,30.12,NNW,337,7.0,10.0,32,0.00,,,0.00,VWS V14.01,2013-01-19 08:40:00,
2013-01-19 01:45:00,48.0,20.3,30.12,NNW,333,4.0,8.0,33,0.00,,,0.00,VWS V14.01,2013-01-19 08:45:00,
2013-01-19 01:50:00,47.9,20.2,30.12,NNW,347,7.0,11.0,33,0.00,,,0.00,VWS V14.01,2013-01-19 08:50:00,
2013-01-19 01:55:00,47.9,20.2,30.12,NNW,333,6.0,10.0,33,0.00,,,0.00,VWS V14.01,2013-01-19 08:55:00,
2013-01-19 02:00:00,48.0,20.3,30.12,NW,317,9.0,12.0,33,0.00,,,0.00,VWS V14.01,2013-01-19 09:00:00,
2013-01-19 02:05:00,48.1,20.4,30.12,NNE,13,7.0,10.0,33,0.00,,,0.00,VWS V14.01,2013-01-19 09:05:00,
2013-01-19 02:10:00,48.1,20.4,30.12,NNW,332,7.0,12.0,33,0.00,,,0.00,VWS V14.01,2013-01-19 09:10:00,
2013-01-19 02:15:00,48.3,19.8,30.13,North,5,11.0,12.0,32,0.00,,,0.00,VWS V14.01,2013-01-19 09:15:00,
2013-01-19 02:20:00,48.4,19.9,30.12,NW,326,6.0,10.0,32,0.00,,,0.00,VWS V14.01,2013-01-19 09:20:00,
2013-01-19 02:25:00,48.3,19.8,30.12,NNW,341,9.0,13.0,32,0.00,,,0.00,VWS V14.01,2013-01-19 09:25:00,
2013-01-19 02:30:00,48.4,19.9,30.13,NNW,343,8.0,11.0,32,0.00,,,0.00,VWS V14.01,2013-01-19 09:30:00,
2013-01-19 02:35:00,48.5,20.0,30.13,NNW,336,8.0,12.0,32,0.00,,,0.00,VWS V14.01,2013-01-19 09:35:00,
2013-01-19 02:40:00,48.4,19.9,30.13,North,360,11.0,11.0,32,0.00,,,0.00,VWS V14.01,2013-01-19 09:40:00,
2013-01-19 02:45:00,48.5,20.0,30.13,NNW,346,7.0,12.0,32,0.00,,,0.00,VWS V14.01,2013-01-19 09:45:00,
2013-01-19 02:50:00,48.3,19.8,30.13,NW,324,7.0,13.0,32,0.00,,,0.00,VWS V14.01,2013-01-19 09:50:00,
2013-01-19 02:55:00,48.2,20.5,30.13,NNW,348,5.0,12.0,33,0.00,,,0.00,VWS V14.01,2013-01-19 09:55:00,
2013-01-19 03:00:00,48.0,20.3,30.13,NNW,333,6.0,11.0,33,0.00,,,0.00,VWS V14.01,2013-01-19 10:00:00,
2013-01-19 03:05:00,48.0,20.3,30.13,NNW,327,5.0,12.0,33,0.00,,,0.00,VWS V14.01,2013-01-19 10:05:00,
2013-01-19 03:10:00,47.9,20.2,30.13,North,5,11.0,14.0,33,0.00,,,0.00,VWS V14.01,2013-01-19 10:10:00,
2013-01-19 03:15:00,47.9,20.2,30.13,NW,325,9.0,14.0,33,0.00,,,0.00,VWS V14.01,2013-01-19 10:15:00,
2013-01-19 03:20:00,47.9,20.2,30.13,NNW,345,10.0,13.0,33,0.00,,,0.00,VWS V14.01,2013-01-19 10:20:00,
2013-01-19 03:25:00,47.9,20.2,30.13,North,355,7.0,13.0,33,0.00,,,0.00,VWS V14.01,2013-01-19 10:25:00,
2013-01-19 03:30:00,47.8,20.1,30.13,NNW,347,7.0,11.0,33,0.00,,,0.00,VWS V14.01,2013-01-19 10:30:00,
2013-01-19 03:35:00,47.6,19.9,30.13,NNW,335,10.0,14.0,33,0.00,,,0.00,VWS V14.01,2013-01-19 10:35:00,
2013-01-19 03:40:00,47.4,19.8,30.13,NW,318,10.0,10.0,33,0.00,,,0.00,VWS V14.01,2013-01-19 10:40:00,
2013-01-19 03:45:00,47.2,20.3,30.13,North,355,8.0,13.0,34,0.00,,,0.00,VWS V14.01,2013-01-19 10:45:00,
2013-01-19 03:50:00,47.0,19.4,30.13,North,349,10.0,13.0,33,0.00,,,0.00,VWS V14.01,2013-01-19 10:50:00,
2013-01-19 03:55:00,47.0,19.4,30.13,NNW,331,8.0,14.0,33,0.00,,,0.00,VWS V14.01,2013-01-19 10:55:00,
2013-01-19 04:00:00,46.9,19.3,30.13,NNW,344,5.0,13.0,33,0.00,,,0.00,VWS V14.01,2013-01-19 11:00:00,
2013-01-19 04:05:00,47.0,19.4,30.13,NNW,347,7.0,12.0,33,0.00,,,0.00,VWS V14.01,2013-01-19 11:05:00,
2013-01-19 04:10:00,47.0,19.4,30.13,NW,323,6.0,12.0,33,0.00,,,0.00,VWS V14.01,2013-01-19 11:10:00,
2013-01-19 05:48:00,46.8,19.2,30.14,NNW,342,6.0,11.0,33,0.00,,,0.00,VWS V14.01,2013-01-19 12:48:00,
2013-01-19 05:51:00,46.7,19.1,30.14,North,360,6.0,11.0,33,0.00,,,0.00,VWS V14.01,2013-01-19 12:51:00,
2013-01-19 05:53:00,46.7,19.1,30.14,NNW,346,5.0,11.0,33,0.00,,,0.00,VWS V14.01,2013-01-19 12:53:00,
2013-01-19 05:56:00,46.6,19.0,30.14,NNW,331,7.0,11.0,33,0.00,,,0.00,VWS V14.01,2013-01-19 12:56:00,
2013-01-19 06:01:00,46.5,19.7,30.14,NW,325,7.0,14.0,34,0.00,,,0.00,VWS V14.01,2013-01-19 13:01:00,
2013-01-19 06:06:00,46.5,19.7,30.14,NNW,338,6.0,12.0,34,0.00,,,0.00,VWS V14.01,2013-01-19 13:06:00,
2013-01-19 06:11:00,46.4,19.6,30.14,NW,325,6.0,11.0,34,0.00,,,0.00,VWS V14.01,2013-01-19 13:11:00,
2013-01-19 06:16:00,46.4,19.6,30.14,NNW,340,8.0,12.0,34,0.00,,,0.00,VWS V14.01,2013-01-19 13:16:00,
2013-01-19 06:21:00,46.3,19.5,30.14,NNW,336,4.0,13.0,34,0.00,,,0.00,VWS V14.01,2013-01-19 13:21:00,
2013-01-19 06:26:00,46.3,19.5,30.14,North,355,9.0,13.0,34,0.00,,,0.00,VWS V14.01,2013-01-19 13:26:00,
2013-01-19 06:33:00,46.1,19.3,30.14,North,355,9.0,13.0,34,0.00,,,0.00,VWS V14.01,2013-01-19 13:33:00,
2013-01-19 06:38:00,46.0,19.2,30.15,NNW,344,9.0,11.0,34,0.00,,,0.00,VWS V14.01,2013-01-19 13:38:00,
2013-01-19 06:43:00,45.9,19.1,30.15,North,5,8.0,11.0,34,0.00,,,0.00,VWS V14.01,2013-01-19 13:43:00,
2013-01-19 06:48:00,45.9,19.1,30.15,North,5,8.0,11.0,34,0.00,,,0.00,VWS V14.01,2013-01-19 13:48:00,
2013-01-19 06:53:00,45.9,19.1,30.15,North,355,8.0,11.0,34,0.00,,,0.00,VWS V14.01,2013-01-19 13:53:00,
2013-01-19 06:58:00,45.9,19.1,30.15,NNW,335,8.0,11.0,34,0.00,,,0.00,VWS V14.01,2013-01-19 13:58:00,
2013-01-19 07:03:00,45.9,19.1,30.15,North,355,8.0,12.0,34,0.00,,,0.00,VWS V14.01,2013-01-19 14:03:00,
2013-01-19 07:08:00,45.9,19.1,30.15,NNW,334,8.0,10.0,34,0.00,,,0.00,VWS V14.01,2013-01-19 14:08:00,
2013-01-19 07:13:00,45.8,19.0,30.15,NNW,332,7.0,13.0,34,0.00,,,0.00,VWS V14.01,2013-01-19 14:13:00,
2013-01-19 07:18:00,45.8,19.0,30.16,NW,313,8.0,13.0,34,0.00,,,0.00,VWS V14.01,2013-01-19 14:18:00,
2013-01-19 07:23:00,45.7,19.6,30.16,NNW,348,9.0,13.0,35,0.00,,,0.00,VWS V14.01,2013-01-19 14:23:00,
2013-01-19 07:28:00,45.6,19.5,30.16,NNW,333,7.0,12.0,35,0.00,,,0.00,VWS V14.01,2013-01-19 14:28:00,
2013-01-19 07:33:00,45.5,19.5,30.16,North,350,10.0,12.0,35,0.00,,,0.00,VWS V14.01,2013-01-19 14:33:00,
2013-01-19 07:38:00,45.4,19.4,30.16,North,349,8.0,14.0,35,0.00,,,0.00,VWS V14.01,2013-01-19 14:38:00,
2013-01-19 07:43:00,45.4,19.4,30.17,NW,321,6.0,12.0,35,0.00,,,0.00,VWS V14.01,2013-01-19 14:43:00,
2013-01-19 07:48:00,45.2,19.2,30.17,North,355,7.0,13.0,35,0.00,,,0.00,VWS V14.01,2013-01-19 14:48:00,
2013-01-19 07:53:00,45.2,19.2,30.17,NNW,335,12.0,15.0,35,0.00,,,0.00,VWS V14.01,2013-01-19 14:53:00,
2013-01-19 07:58:00,45.3,19.3,30.18,North,5,6.0,13.0,35,0.00,,,0.00,VWS V14.01,2013-01-19 14:58:00,
2013-01-19 08:03:00,45.5,19.5,30.18,NNW,344,9.0,11.0,35,0.00,,,0.00,VWS V14.01,2013-01-19 15:03:00,
2013-01-19 08:08:00,45.9,19.8,30.18,NNW,344,10.0,17.0,35,0.00,,,0.00,VWS V14.01,2013-01-19 15:08:00,
2013-01-19 08:14:00,46.4,19.6,30.18,NW,315,9.0,14.0,34,0.00,,,0.00,VWS V14.01,2013-01-19 15:14:00,
2013-01-19 08:19:00,46.8,19.9,30.18,NNW,348,8.0,12.0,34,0.00,,,0.00,VWS V14.01,2013-01-19 15:19:00,
2013-01-19 08:24:00,47.3,19.7,30.18,NNW,340,7.0,11.0,33,0.00,,,0.00,VWS V14.01,2013-01-19 15:24:00,
2013-01-19 08:29:00,47.8,20.1,30.19,NNW,340,8.0,16.0,33,0.00,,,0.00,VWS V14.01,2013-01-19 15:29:00,
2013-01-19 08:34:00,48.1,19.6,30.19,NW,308,7.0,13.0,32,0.00,,,0.00,VWS V14.01,2013-01-19 15:34:00,
2013-01-19 08:39:00,48.5,20.0,30.19,North,360,7.0,12.0,32,0.00,,,0.00,VWS V14.01,2013-01-19 15:39:00,
2013-01-19 08:44:00,48.8,20.3,30.19,North,350,13.0,15.0,32,0.00,,,0.00,VWS V14.01,2013-01-19 15:44:00,
2013-01-19 08:49:00,49.2,19.9,30.19,NNW,337,6.0,17.0,31,0.00,,,0.00,VWS V14.01,2013-01-19 15:49:00,
2013-01-19 08:54:00,49.5,20.1,30.19,NNW,345,8.0,13.0,31,0.00,,,0.00,VWS V14.01,2013-01-19 15:54:00,
2013-01-19 08:59:00,49.9,19.7,30.19,NNE,23,8.0,12.0,30,0.00,,,0.00,VWS V14.01,2013-01-19 15:59:00,
2013-01-19 09:04:00,50.4,20.1,30.19,NW,319,8.0,14.0,30,0.00,,,0.00,VWS V14.01,2013-01-19 16:04:00,
2013-01-19 09:09:00,50.9,19.8,30.19,NW,306,8.0,14.0,29,0.00,,,0.00,VWS V14.01,2013-01-19 16:09:00,
2013-01-19 09:14:00,51.5,20.3,30.19,NNW,329,8.0,13.0,29,0.00,,,0.00,VWS V14.01,2013-01-19 16:14:00,
2013-01-19 09:19:00,52.1,20.0,30.19,WNW,302,9.0,13.0,28,0.00,,,0.00,VWS V14.01,2013-01-19 16:19:00,
2013-01-19 09:24:00,52.6,19.6,30.20,NNW,329,7.0,13.0,27,0.00,,,0.00,VWS V14.01,2013-01-19 16:24:00,
2013-01-19 09:29:00,53.1,20.0,30.20,NW,318,10.0,14.0,27,0.00,,,0.00,VWS V14.01,2013-01-19 16:29:00,
2013-01-19 09:34:00,53.6,20.5,30.20,North,5,8.0,14.0,27,0.00,,,0.00,VWS V14.01,2013-01-19 16:34:00,
2013-01-19 09:39:00,54.0,19.9,30.20,NNW,334,6.0,14.0,26,0.00,,,0.00,VWS V14.01,2013-01-19 16:39:00,
2013-01-19 09:44:00,54.6,20.4,30.20,North,360,10.0,13.0,26,0.00,,,0.00,VWS V14.01,2013-01-19 16:44:00,
2013-01-19 09:49:00,55.0,19.8,30.20,NW,319,5.0,12.0,25,0.00,,,0.00,VWS V14.01,2013-01-19 16:49:00,
2013-01-19 09:54:00,55.5,20.3,30.20,North,355,8.0,13.0,25,0.00,,,0.00,VWS V14.01,2013-01-19 16:54:00,
2013-01-19 09:59:00,55.9,19.6,30.20,North,5,7.0,13.0,24,0.00,,,0.00,VWS V14.01,2013-01-19 16:59:00,
2013-01-19 10:04:00,56.2,19.9,30.20,NW,316,7.0,11.0,24,0.00,,,0.00,VWS V14.01,2013-01-19 17:04:00,
2013-01-19 10:09:00,56.8,20.4,30.20,North,350,6.0,10.0,24,0.00,,,0.00,VWS V14.01,2013-01-19 17:09:00,
2013-01-19 10:14:00,57.4,19.9,30.20,NNW,331,7.0,11.0,23,0.00,,,0.00,VWS V14.01,2013-01-19 17:14:00,
2013-01-19 10:19:00,57.7,20.2,30.21,North,5,7.0,13.0,23,0.00,,,0.00,VWS V14.01,2013-01-19 17:19:00,
2013-01-19 10:24:00,58.1,20.5,30.21,NW,321,7.0,11.0,23,0.00,,,0.00,VWS V14.01,2013-01-19 17:24:00,
2013-01-19 10:29:00,58.4,19.7,30.21,NW,313,5.0,12.0,22,0.00,,,0.00,VWS V14.01,2013-01-19 17:29:00,
2013-01-19 10:34:00,58.7,20.0,30.20,NNW,331,6.0,13.0,22,0.00,,,0.00,VWS V14.01,2013-01-19 17:34:00,
2013-01-19 10:39:00,59.3,20.5,30.20,NW,324,10.0,11.0,22,0.00,,,0.00,VWS V14.01,2013-01-19 17:39:00,
2013-01-19 10:44:00,59.8,20.9,30.20,North,350,8.0,11.0,22,0.00,,,0.00,VWS V14.01,2013-01-19 17:44:00,
2013-01-19 10:49:00,60.3,20.2,30.20,NNW,333,6.0,11.0,21,0.00,,,0.00,VWS V14.01,2013-01-19 17:49:00,
2013-01-19 10:59:00,61.0,19.7,30.20,NW,325,5.0,12.0,20,0.00,,,0.00,VWS V14.01,2013-01-19 17:59:00,
2013-01-19 11:06:00,61.5,20.1,30.19,NNW,336,8.0,12.0,20,0.00,,,0.00,VWS V14.01,2013-01-19 18:06:00,
2013-01-19 11:15:00,62.1,20.6,30.19,WNW,301,8.0,11.0,20,0.00,,,0.00,VWS V14.01,2013-01-19 18:15:00,
2013-01-19 11:20:00,62.5,19.7,30.19,NNW,333,4.0,12.0,19,0.00,,,0.00,VWS V14.01,2013-01-19 18:20:00,
2013-01-19 11:25:00,62.9,20.0,30.19,North,355,3.0,10.0,19,0.00,,,0.00,VWS V14.01,2013-01-19 18:25:00,
2013-01-19 11:30:00,63.3,20.4,30.19,North,349,4.0,9.0,19,0.00,,,0.00,VWS V14.01,2013-01-19 18:30:00,
2013-01-19 11:35:00,63.8,19.5,30.18,NW,312,7.0,9.0,18,0.00,,,0.00,VWS V14.01,2013-01-19 18:35:00,
2013-01-19 11:40:00,64.1,19.8,30.18,North,360,6.0,10.0,18,0.00,,,0.00,VWS V14.01,2013-01-19 18:40:00,
2013-01-19 11:45:00,64.5,20.1,30.17,NNW,338,7.0,9.0,18,0.00,,,0.00,VWS V14.01,2013-01-19 18:45:00,
2013-01-19 11:51:00,64.7,18.9,30.17,NW,323,4.0,9.0,17,0.00,,,0.00,VWS V14.01,2013-01-19 18:51:00,
2013-01-19 11:56:00,65.0,19.2,30.17,North,5,7.0,10.0,17,0.00,,,0.00,VWS V14.01,2013-01-19 18:56:00,
2013-01-19 12:01:00,65.2,19.3,30.16,NNW,329,9.0,10.0,17,0.00,,,0.00,VWS V14.01,2013-01-19 19:01:00,
2013-01-19 12:06:00,65.6,19.6,30.16,North,360,6.0,9.0,17,0.00,,,0.00,VWS V14.01,2013-01-19 19:06:00,
2013-01-19 12:15:00,66.1,18.6,30.15,NNW,338,8.0,10.0,16,0.00,,,0.00,VWS V14.01,2013-01-19 19:15:00,
2013-01-19 12:20:00,66.4,20.3,30.15,North,360,6.0,10.0,17,0.00,,,0.00,VWS V14.01,2013-01-19 19:20:00,
2013-01-19 12:26:00,66.8,19.2,30.15,North,351,6.0,9.0,16,0.00,,,0.00,VWS V14.01,2013-01-19 19:26:00,
2013-01-19 12:31:00,67.0,19.4,30.14,NNW,343,6.0,12.0,16,0.00,,,0.00,VWS V14.01,2013-01-19 19:31:00,
2013-01-19 12:41:00,67.5,18.3,30.13,NNW,336,8.0,9.0,15,0.00,,,0.00,VWS V14.01,2013-01-19 19:41:00,
2013-01-19 12:46:00,67.7,18.4,30.13,North,360,7.0,7.0,15,0.00,,,0.00,VWS V14.01,2013-01-19 19:46:00,
2013-01-19 12:51:00,68.1,17.1,30.13,NNW,345,5.0,8.0,14,0.00,,,0.00,VWS V14.01,2013-01-19 19:51:00,
2013-01-19 12:56:00,68.4,17.4,30.12,NNW,336,4.0,10.0,14,0.00,,,0.00,VWS V14.01,2013-01-19 19:56:00,
2013-01-19 13:01:00,68.7,17.6,30.12,NNW,329,4.0,4.0,14,0.00,,,0.00,VWS V14.01,2013-01-19 20:01:00,
2013-01-19 13:06:00,68.9,17.8,30.12,NW,323,4.0,9.0,14,0.00,,,0.00,VWS V14.01,2013-01-19 20:06:00,
2013-01-19 13:11:00,69.1,17.9,30.12,North,360,7.0,10.0,14,0.00,,,0.00,VWS V14.01,2013-01-19 20:11:00,
2013-01-19 13:16:00,69.3,18.1,30.12,North,360,9.0,9.0,14,0.00,,,0.00,VWS V14.01,2013-01-19 20:16:00,
2013-01-19 13:26:00,69.7,16.7,30.11,NNE,13,5.0,8.0,13,0.00,,,0.00,VWS V14.01,2013-01-19 20:26:00,
2013-01-19 13:31:00,69.8,18.5,30.11,NW,321,4.0,11.0,14,0.00,,,0.00,VWS V14.01,2013-01-19 20:31:00,
2013-01-19 13:36:00,70.1,17.0,30.11,NW,319,4.0,10.0,13,0.00,,,0.00,VWS V14.01,2013-01-19 20:36:00,
2013-01-19 13:42:00,70.3,17.2,30.11,NNE,12,7.0,10.0,13,0.00,,,0.00,VWS V14.01,2013-01-19 20:42:00,
2013-01-19 13:51:00,70.7,15.6,30.10,NNW,329,8.0,8.0,12,0.00,,,0.00,VWS V14.01,2013-01-19 20:51:00,
2013-01-19 13:56:00,70.9,15.8,30.10,North,360,5.0,10.0,12,0.00,,,0.00,VWS V14.01,2013-01-19 20:56:00,
2013-01-19 14:01:00,70.8,15.7,30.10,NW,317,6.0,10.0,12,0.00,,,0.00,VWS V14.01,2013-01-19 21:01:00,
2013-01-19 14:06:00,71.0,15.9,30.10,NNW,330,9.0,11.0,12,0.00,,,0.00,VWS V14.01,2013-01-19 21:06:00,
2013-01-19 14:11:00,71.0,15.9,30.10,NNW,331,6.0,11.0,12,0.00,,,0.00,VWS V14.01,2013-01-19 21:11:00,
2013-01-19 14:16:00,71.2,16.0,30.09,NW,325,6.0,9.0,12,0.00,,,0.00,VWS V14.01,2013-01-19 21:16:00,
2013-01-19 14:26:00,71.6,14.4,30.09,NW,313,5.0,8.0,11,0.00,,,0.00,VWS V14.01,2013-01-19 21:26:00,
2013-01-19 14:31:00,71.7,14.4,30.09,North,349,8.0,10.0,11,0.00,,,0.00,VWS V14.01,2013-01-19 21:31:00,
2013-01-19 14:37:00,71.7,14.4,30.09,NNE,32,6.0,8.0,11,0.00,,,0.00,VWS V14.01,2013-01-19 21:37:00,
2013-01-19 14:43:00,71.9,12.4,30.09,NNW,336,4.0,5.0,10,0.00,,,0.00,VWS V14.01,2013-01-19 21:43:00,
2013-01-19 14:48:00,72.1,12.6,30.09,NNW,327,5.0,7.0,10,0.00,,,0.00,VWS V14.01,2013-01-19 21:48:00,
2013-01-19 14:53:00,72.2,14.8,30.09,North,351,7.0,9.0,11,0.00,,,0.00,VWS V14.01,2013-01-19 21:53:00,
2013-01-19 14:58:00,72.2,16.8,30.09,NNE,19,6.0,6.0,12,0.00,,,0.00,VWS V14.01,2013-01-19 21:58:00,
2013-01-19 15:06:00,72.5,17.0,30.09,NNW,330,6.0,7.0,12,0.00,,,0.00,VWS V14.01,2013-01-19 22:06:00,
2013-01-19 15:13:00,72.6,17.1,30.09,West,269,4.0,6.0,12,0.00,,,0.00,VWS V14.01,2013-01-19 22:13:00,
2013-01-19 15:18:00,72.6,19.0,30.09,NNW,336,1.0,7.0,13,0.00,,,0.00,VWS V14.01,2013-01-19 22:18:00,
2013-01-19 15:23:00,72.6,19.0,30.09,West,275,1.0,6.0,13,0.00,,,0.00,VWS V14.01,2013-01-19 22:23:00,
2013-01-19 15:28:00,72.7,19.1,30.09,NNW,348,1.0,7.0,13,0.00,,,0.00,VWS V14.01,2013-01-19 22:28:00,
2013-01-19 15:33:00,72.7,19.1,30.09,NNW,347,5.0,8.0,13,0.00,,,0.00,VWS V14.01,2013-01-19 22:33:00,
2013-01-19 15:38:00,72.6,20.7,30.09,North,360,6.0,8.0,14,0.00,,,0.00,VWS V14.01,2013-01-19 22:38:00,
2013-01-19 15:46:00,72.5,20.6,30.09,NW,319,3.0,8.0,14,0.00,,,0.00,VWS V14.01,2013-01-19 22:46:00,
2013-01-19 15:53:00,72.4,20.5,30.09,North,9,5.0,6.0,14,0.00,,,0.00,VWS V14.01,2013-01-19 22:53:00,
2013-01-19 15:58:00,72.4,20.5,30.09,NNW,331,5.0,9.0,14,0.00,,,0.00,VWS V14.01,2013-01-19 22:58:00,
2013-01-19 16:06:00,72.3,20.5,30.09,NW,325,2.0,8.0,14,0.00,,,0.00,VWS V14.01,2013-01-19 23:06:00,
2013-01-19 16:11:00,72.2,22.0,30.09,NW,321,2.0,7.0,15,0.00,,,0.00,VWS V14.01,2013-01-19 23:11:00,
2013-01-19 16:16:00,72.3,20.5,30.09,NNW,337,2.0,6.0,14,0.00,,,0.00,VWS V14.01,2013-01-19 23:16:00,
2013-01-19 16:24:00,72.4,22.2,30.09,NNW,344,3.0,6.0,15,0.00,,,0.00,VWS V14.01,2013-01-19 23:24:00,
2013-01-19 16:31:00,72.1,20.3,30.09,NNW,344,3.0,7.0,14,0.00,,,0.00,VWS V14.01,2013-01-19 23:31:00,
2013-01-19 16:41:00,71.8,20.1,30.09,North,355,5.0,7.0,14,0.00,,,0.00,VWS V14.01,2013-01-19 23:41:00,
2013-01-19 16:46:00,71.7,20.0,30.09,North,355,3.0,6.0,14,0.00,,,0.00,VWS V14.01,2013-01-19 23:46:00,
2013-01-19 16:51:00,71.5,19.8,30.09,North,11,4.0,6.0,14,0.00,,,0.00,VWS V14.01,2013-01-19 23:51:00,
2013-01-19 16:59:00,71.1,21.1,30.09,NNE,20,5.0,6.0,15,0.00,,,0.00,VWS V14.01,2013-01-19 23:59:00,
2013-01-19 17:04:00,70.8,20.9,30.09,NNE,19,4.0,5.0,15,0.00,,,0.00,VWS V14.01,2013-01-20 00:04:00,
2013-01-19 17:09:00,70.6,20.7,30.09,NNE,15,1.0,4.0,15,0.00,,,0.00,VWS V14.01,2013-01-20 00:09:00,
2013-01-19 17:14:00,70.4,20.6,30.09,NNE,22,0.0,4.0,15,0.00,,,0.00,VWS V14.01,2013-01-20 00:14:00,
2013-01-19 17:19:00,70.3,20.5,30.09,NNE,17,2.0,4.0,15,0.00,,,0.00,VWS V14.01,2013-01-20 00:19:00,
2013-01-19 17:24:00,70.0,20.3,30.09,NNE,16,3.0,4.0,15,0.00,,,0.00,VWS V14.01,2013-01-20 00:24:00,
2013-01-19 17:29:00,69.6,19.9,30.10,North,9,1.0,5.0,15,0.00,,,0.00,VWS V14.01,2013-01-20 00:29:00,
2013-01-19 17:34:00,69.0,19.5,30.10,NNE,12,1.0,3.0,15,0.00,,,0.00,VWS V14.01,2013-01-20 00:34:00,
2013-01-19 17:39:00,68.2,20.3,30.10,NNE,12,1.0,3.0,16,0.00,,,0.00,VWS V14.01,2013-01-20 00:39:00,
2013-01-19 17:44:00,67.3,19.6,30.10,NNE,12,2.0,4.0,16,0.00,,,0.00,VWS V14.01,2013-01-20 00:44:00,
2013-01-19 17:49:00,66.1,20.0,30.10,North,355,3.0,5.0,17,0.00,,,0.00,VWS V14.01,2013-01-20 00:49:00,
2013-01-19 17:54:00,65.0,19.2,30.10,North,351,3.0,5.0,17,0.00,,,0.00,VWS V14.01,2013-01-20 00:54:00,
2013-01-19 17:59:00,64.0,19.7,30.10,NNW,344,3.0,6.0,18,0.00,,,0.00,VWS V14.01,2013-01-20 00:59:00,
2013-01-19 18:04:00,63.1,18.9,30.10,NNW,331,5.0,7.0,18,0.00,,,0.00,VWS V14.01,2013-01-20 01:04:00,
2013-01-19 18:09:00,62.2,19.5,30.11,NNW,342,5.0,8.0,19,0.00,,,0.00,VWS V14.01,2013-01-20 01:09:00,
2013-01-19 18:14:00,61.6,19.0,30.11,NNW,330,5.0,9.0,19,0.00,,,0.00,VWS V14.01,2013-01-20 01:14:00,
2013-01-19 18:26:00,61.0,18.5,30.11,NNW,346,5.0,8.0,19,0.00,,,0.00,VWS V14.01,2013-01-20 01:26:00,
2013-01-19 18:35:00,60.5,18.1,30.11,North,360,8.0,9.0,19,0.00,,,0.00,VWS V14.01,2013-01-20 01:35:00,
2013-01-19 18:41:00,60.2,19.0,30.12,NW,309,7.0,9.0,20,0.00,,,0.00,VWS V14.01,2013-01-20 01:41:00,
2013-01-19 18:46:00,59.9,18.8,30.12,NW,311,6.0,10.0,20,0.00,,,0.00,VWS V14.01,2013-01-20 01:46:00,
2013-01-19 18:51:00,59.5,18.4,30.12,North,5,3.0,9.0,20,0.00,,,0.00,VWS V14.01,2013-01-20 01:51:00,
2013-01-19 19:00:00,58.9,17.9,30.12,North,355,7.0,9.0,20,0.00,,,0.00,VWS V14.01,2013-01-20 02:00:00,
2013-01-19 19:05:00,58.4,18.6,30.12,NNW,347,3.0,10.0,21,0.00,,,0.00,VWS V14.01,2013-01-20 02:05:00,
2013-01-19 19:10:00,58.0,18.3,30.12,North,355,4.0,10.0,21,0.00,,,0.00,VWS V14.01,2013-01-20 02:10:00,
2013-01-19 19:15:00,57.7,18.1,30.12,NNW,337,4.0,8.0,21,0.00,,,0.00,VWS V14.01,2013-01-20 02:15:00,
2013-01-19 19:20:00,57.5,17.9,30.12,North,5,5.0,10.0,21,0.00,,,0.00,VWS V14.01,2013-01-20 02:20:00,
2013-01-19 19:26:00,57.4,17.8,30.12,NNW,334,5.0,9.0,21,0.00,,,0.00,VWS V14.01,2013-01-20 02:26:00,
2013-01-19 19:31:00,57.3,17.7,30.12,NNW,348,5.0,10.0,21,0.00,,,0.00,VWS V14.01,2013-01-20 02:31:00,
2013-01-19 19:36:00,56.9,17.4,30.12,North,355,7.0,11.0,21,0.00,,,0.00,VWS V14.01,2013-01-20 02:36:00,
2013-01-19 19:41:00,56.5,17.1,30.12,NNW,346,6.0,10.0,21,0.00,,,0.00,VWS V14.01,2013-01-20 02:41:00,
2013-01-19 19:46:00,56.5,17.1,30.12,North,5,6.0,11.0,21,0.00,,,0.00,VWS V14.01,2013-01-20 02:46:00,
2013-01-19 19:56:00,56.8,16.2,30.12,North,360,6.0,11.0,20,0.00,,,0.00,VWS V14.01,2013-01-20 02:56:00,
2013-01-19 20:01:00,57.0,16.4,30.12,North,351,7.0,11.0,20,0.00,,,0.00,VWS V14.01,2013-01-20 03:01:00,
2013-01-19 20:06:00,56.9,16.3,30.13,North,355,4.0,9.0,20,0.00,,,0.00,VWS V14.01,2013-01-20 03:06:00,
2013-01-19 20:11:00,56.6,17.1,30.13,North,350,5.0,8.0,21,0.00,,,0.00,VWS V14.01,2013-01-20 03:11:00,
2013-01-19 20:16:00,56.0,16.6,30.13,North,10,2.0,4.0,21,0.00,,,0.00,VWS V14.01,2013-01-20 03:16:00,
2013-01-19 20:22:00,56.1,15.6,30.13,North,360,7.0,8.0,20,0.00,,,0.00,VWS V14.01,2013-01-20 03:22:00,
2013-01-19 20:27:00,56.6,16.0,30.13,North,355,6.0,11.0,20,0.00,,,0.00,VWS V14.01,2013-01-20 03:27:00,
2013-01-19 20:32:00,57.1,15.2,30.13,NNW,328,9.0,10.0,19,0.00,,,0.00,VWS V14.01,2013-01-20 03:32:00,
2013-01-19 20:37:00,57.4,15.5,30.13,North,355,8.0,11.0,19,0.00,,,0.00,VWS V14.01,2013-01-20 03:37:00,
2013-01-19 20:42:00,57.3,15.4,30.13,North,349,7.0,11.0,19,0.00,,,0.00,VWS V14.01,2013-01-20 03:42:00,
2013-01-19 20:51:00,57.1,15.2,30.13,NNW,340,7.0,11.0,19,0.00,,,0.00,VWS V14.01,2013-01-20 03:51:00,
2013-01-19 20:56:00,57.0,15.2,30.13,NW,313,7.0,11.0,19,0.00,,,0.00,VWS V14.01,2013-01-20 03:56:00,
2013-01-19 21:01:00,56.9,15.1,30.13,NNW,330,9.0,12.0,19,0.00,,,0.00,VWS V14.01,2013-01-20 04:01:00,
2013-01-19 21:06:00,57.1,15.2,30.13,North,355,8.0,14.0,19,0.00,,,0.00,VWS V14.01,2013-01-20 04:06:00,
2013-01-19 21:11:00,57.7,15.8,30.13,North,355,9.0,12.0,19,0.00,,,0.00,VWS V14.01,2013-01-20 04:11:00,
2013-01-19 21:16:00,58.1,16.1,30.13,North,5,7.0,11.0,19,0.00,,,0.00,VWS V14.01,2013-01-20 04:16:00,
2013-01-19 21:21:00,58.4,16.3,30.13,NNW,332,8.0,11.0,19,0.00,,,0.00,VWS V14.01,2013-01-20 04:21:00,
2013-01-19 21:27:00,58.6,16.5,30.13,North,350,4.0,8.0,19,0.00,,,0.00,VWS V14.01,2013-01-20 04:27:00,
2013-01-19 21:32:00,58.2,16.2,30.13,North,5,7.0,7.0,19,0.00,,,0.00,VWS V14.01,2013-01-20 04:32:00,
2013-01-19 21:37:00,58.1,16.1,30.13,North,355,3.0,7.0,19,0.00,,,0.00,VWS V14.01,2013-01-20 04:37:00,
2013-01-19 21:42:00,58.0,16.0,30.13,NNW,342,5.0,7.0,19,0.00,,,0.00,VWS V14.01,2013-01-20 04:42:00,
2013-01-19 21:47:00,57.9,15.9,30.13,NE,37,4.0,8.0,19,0.00,,,0.00,VWS V14.01,2013-01-20 04:47:00,
2013-01-19 21:52:00,57.6,15.7,30.13,NNE,13,5.0,6.0,19,0.00,,,0.00,VWS V14.01,2013-01-20 04:52:00,
2013-01-19 21:57:00,57.3,15.4,30.14,NNW,338,2.0,10.0,19,0.00,,,0.00,VWS V14.01,2013-01-20 04:57:00,
2013-01-19 22:01:00,57.2,16.5,30.14,North,5,4.0,10.0,20,0.00,,,0.00,VWS V14.01,2013-01-20 05:01:00,
2013-01-19 22:02:00,57.1,16.4,30.14,North,355,7.0,7.0,20,0.00,,,0.00,VWS V14.01,2013-01-20 05:02:00,
2013-01-19 22:07:00,57.0,16.4,30.14,North,355,4.0,7.0,20,0.00,,,0.00,VWS V14.01,2013-01-20 05:07:00,
2013-01-19 22:12:00,56.8,16.2,30.14,NNW,344,6.0,6.0,20,0.00,,,0.00,VWS V14.01,2013-01-20 05:12:00,
2013-01-19 22:16:00,56.8,16.2,30.14,North,5,5.0,7.0,20,0.00,,,0.00,VWS V14.01,2013-01-20 05:16:00,
2013-01-19 22:21:00,56.7,16.1,30.14,NNW,331,4.0,7.0,20,0.00,,,0.00,VWS V14.01,2013-01-20 05:21:00,
2013-01-19 22:26:00,56.6,16.0,30.14,NNW,348,5.0,11.0,20,0.00,,,0.00,VWS V14.01,2013-01-20 05:26:00,
2013-01-19 22:31:00,56.4,15.9,30.14,NNW,340,1.0,7.0,20,0.00,,,0.00,VWS V14.01,2013-01-20 05:31:00,
2013-01-19 22:36:00,56.2,16.8,30.14,NNW,348,7.0,8.0,21,0.00,,,0.00,VWS V14.01,2013-01-20 05:36:00,
2013-01-19 22:41:00,55.9,16.5,30.14,North,349,6.0,8.0,21,0.00,,,0.00,VWS V14.01,2013-01-20 05:41:00,
2013-01-19 22:46:00,55.7,16.4,30.14,NW,320,6.0,8.0,21,0.00,,,0.00,VWS V14.01,2013-01-20 05:46:00,
2013-01-19 22:53:00,55.5,17.3,30.14,NNW,342,5.0,7.0,22,0.00,,,0.00,VWS V14.01,2013-01-20 05:53:00,
2013-01-19 22:58:00,55.4,17.2,30.13,NNW,337,4.0,9.0,22,0.00,,,0.00,VWS V14.01,2013-01-20 05:58:00,
2013-01-19 23:03:00,55.2,17.0,30.13,North,350,4.0,8.0,22,0.00,,,0.00,VWS V14.01,2013-01-20 06:03:00,
2013-01-19 23:08:00,55.0,16.9,30.14,NNW,338,4.0,7.0,22,0.00,,,0.00,VWS V14.01,2013-01-20 06:08:00,
2013-01-19 23:13:00,54.8,16.7,30.14,NNW,348,3.0,8.0,22,0.00,,,0.00,VWS V14.01,2013-01-20 06:13:00,
2013-01-19 23:18:00,54.5,16.5,30.14,North,360,3.0,7.0,22,0.00,,,0.00,VWS V14.01,2013-01-20 06:18:00,
2013-01-19 23:23:00,54.2,17.2,30.14,North,355,6.0,8.0,23,0.00,,,0.00,VWS V14.01,2013-01-20 06:23:00,
2013-01-19 23:28:00,54.0,17.1,30.14,North,9,7.0,8.0,23,0.00,,,0.00,VWS V14.01,2013-01-20 06:28:00,
2013-01-19 23:33:00,54.0,17.1,30.14,North,350,6.0,9.0,23,0.00,,,0.00,VWS V14.01,2013-01-20 06:33:00,
2013-01-19 23:38:00,53.9,17.0,30.14,North,355,6.0,8.0,23,0.00,,,0.00,VWS V14.01,2013-01-20 06:38:00,
2013-01-19 23:43:00,53.7,16.8,30.14,North,351,5.0,8.0,23,0.00,,,0.00,VWS V14.01,2013-01-20 06:43:00,
2013-01-19 23:48:00,53.7,17.8,30.13,NNW,338,7.0,10.0,24,0.00,,,0.00,VWS V14.01,2013-01-20 06:48:00,
2013-01-19 23:53:00,53.6,17.7,30.13,NNW,340,5.0,9.0,24,0.00,,,0.00,VWS V14.01,2013-01-20 06:53:00,
2013-01-19 23:58:00,53.6,17.7,30.13,North,350,4.0,8.0,24,0.00,,,0.00,VWS V14.01,2013-01-20 06:58:00,